Regional Weather Roundup
Issued by NWS Midland/Odessa, TX

Skip options and go directly to product.
Home | Oldest Version | Previous Version | Current Version | All | Text Only | Save Text | Print | Product List | Glossary On

Skip product version selection by date and time.   
994
ASUS44 KMAF 061710
RWRMAF
MIDLAND AREA WEATHER ROUNDUP
NATIONAL WEATHER SERVICE MIDLAND TX
1200 PM CDT MON JUL 06 2015

...IN SOUTHWEST TEXAS AND SOUTHEAST NEW MEXICO...

CITY           SKY/WX    TMP DP  RH WIND       PRES   REMARKS
ALPINE         MOSUNNY   87  61  42 SW9G16    30.18S
ANDREWS        PTSUNNY   90  63  41 SW8       30.01S
ARTESIA        SUNNY     90  59  35 CALM      30.01S
BIG SPRING     SUNNY     88  67  49 S15G21    30.02R
CARLSBAD       SUNNY     93  59  31 S7        29.98F
DRYDEN           N/A     87  71  58 S10       30.00S
FORT STOCKTON  CLOUDY    90  63  40 SW6       30.02S
GUAD PASS      CLOUDY    75  59  57 SW24      30.18R
HOBBS          SUNNY     90  59  35 S13       30.03S
MARFA          CLOUDY   N/A N/A N/A W6        30.19S
MIDLAND AIRPK  PTSUNNY   89  65  44 S12G17    30.01R
MIDLAND INTL   PTSUNNY   87  67  51 SW12      30.00S
ODESSA         PTSUNNY   88  66  48 SW14G24   30.02R
PECOS          MOSUNNY   95  59  30 SW9G16    29.97S
PRESIDIO       FAIR      87  65  48 MISG      30.05S
SEMINOLE       MOSUNNY   92  59  33 SW10G17   30.02S
SNYDER         SUNNY     85  71  61 S13G21    30.00R
WINK           MOSUNNY   95  61  32 W12G20    29.97F
$$
...OTHER STATIONS IN TEXAS...

CITY           SKY/WX    TMP DP  RH WIND       PRES   REMARKS
ABILENE        MOSUNNY   88  70  55 S17G28    29.99F
AMARILLO       SUNNY     83  67  58 W8        30.03S
AUSTIN         PTSUNNY   87  72  60 S20G26    30.06S
BROWNSVILLE    FAIR      90  75  61 SE22      30.03F HX 100
CORPUS CHRISTI PTSUNNY   90  72  55 S24G33    30.05R
DALLAS FTW     PTSUNNY   88  69  53 S21G30    30.00F
DEL RIO        PTSUNNY   85  71  63 SE14G22   29.98F
EL PASO        MOSUNNY   85  58  39 SW8       30.09R
HOUSTON INT    PTSUNNY   90  74  59 S14       30.09S
LUBBOCK        MOSUNNY   88  67  49 S10       30.00S
SAN ANGELO     MOSUNNY   88  70  55 S17G24    30.00F
SAN ANTONIO    MOSUNNY   86  69  56 S16       30.07S
WACO           MOSUNNY   89  69  51 S21       30.04F
WICHITA FALLS  NOT AVBL
$$
...OTHER LOCATIONS IN NEW MEXICO...

CITY           SKY/WX    TMP DP  RH WIND       PRES   REMARKS
ALAMAGORDO     MOSUNNY   84  54  34 NW10      30.09S
ALBUQUERQUE    MOSUNNY   79  54  41 W8        30.18S
CANNON AFB     MOSUNNY   84  63  48 VRB2      30.04S
CLOVIS         PTSUNNY   84  63  48 CALM        N/A
HOLLOMAN AFB     N/A     85  57  38 VRB5      30.07S
ROSWELL        SUNNY     89  57  33 CALM      30.00S
RUIDOSO        MOSUNNY   73  54  49 NW6       30.27S
SANTA FE       PTSUNNY   76  53  44 N8        30.22S
TRUTH OR CONSE MOSUNNY   84  52  33 VRB3      30.14S
TUCUMCARI      MOSUNNY   85  60  42 N18G28    30.05R
$$

USA.gov is the U.S. government's official web portal to all federal, state and local government web resources and services.